[[{"header":{"parameterUnit":"m.s-1","parameterCategory":1,"la1":30.2991,"la2":30.254,"lo1":-89.0895,"lo2":-89.0444,"dy":0.0017,"dx":0.0017,"nx":28,"ny":28,"refTime":"2024-06-21T09:00:00:Z","depth":0,"parameterNumber":2,"parameterNumberName":"U-component_of_WINDS"},"data":[0,0,0,0,0,0,0,0,0,0,0,0,0,0,0,0,0,0,0,0,0,0,0,0,0,0,0,0,0,0,0,0,0,0,0,0,0,0,0,0,0,0,0,0,0,0,0,0,0,0,0,0,0,0,0,0,0,0,-2.7157,-2.7156,0,-2.7069,-2.7068,-2.7067,-2.6977,-2.6976,-2.6975,-2.6974,-2.6884,-2.6883,-2.6882,0,0,0,0,0,0,0,0,0,0,0,0,0,-2.7251,-2.725,-2.7157,-2.7156,-2.7155,-2.7069,-2.7068,-2.7067,-2.6977,-2.6976,-2.6974,-2.6973,-2.6885,-2.6883,-2.6882,0,0,0,0,0,0,0,0,0,0,0,0,0,-2.7191,-2.7249,-2.7157,-2.71,-2.7094,-2.7069,-2.7068,-2.7066,-2.6978,-2.6976,-2.6974,-2.6972,-2.6885,-2.6883,-2.6881,-2.6907,0,0,-2.6876,-2.6875,0,0,0,0,0,0,0,0,-2.7195,-2.7188,-2.711,-2.7104,-2.7097,-2.7032,-2.7068,-2.7013,-2.6978,-2.7022,-2.6973,-2.6971,-2.6935,-2.6929,-2.6916,-2.6902,-2.6899,-2.6876,-2.6874,-2.6874,-2.6873,0,0,0,0,0,0,0,-2.7199,-2.7191,-2.7122,-2.7109,-2.7101,-2.708,-2.7069,-2.7057,-2.699,-2.7018,-2.7011,-2.7002,-2.6931,-2.6918,-2.6914,-2.6897,-2.6876,-2.6874,-2.6873,-2.6872,-2.6902,-2.6904,0,0,0,0,0,0,-2.7212,-2.7195,-2.7125,-2.712,-2.7142,-2.7079,-2.7068,-2.7055,-2.699,-2.6978,-2.7004,-2.6998,-2.6922,-2.6916,-2.691,-2.6936,-2.6874,-2.6872,-2.6871,-2.69,-2.6903,-2.6905,0,0,0,0,0,0,-2.7214,-2.7206,-2.7129,-2.7156,-2.7144,-2.708,-2.7066,-2.7054,-2.7041,-2.6979,-2.6967,-2.7003,-2.6921,-2.6913,-2.6909,-2.6932,-2.6871,-2.6869,-2.6898,-2.6901,-2.6904,-2.6988,0,0,0,0,0,0,-2.7217,-2.7208,-2.7215,-2.7156,-2.7143,-2.7128,-2.7068,-2.7054,-2.7038,-2.703,-2.6975,-2.6964,-2.6919,-2.6912,-2.6907,-2.6928,-2.6868,-2.6896,-2.6899,-2.6903,-2.6983,-2.6994,-2.7003,0,0,0,0,0,-2.7221,-2.7242,-2.7216,-2.7208,-2.7151,-2.7129,-2.7122,-2.7069,-2.704,-2.7048,-2.7009,-2.6965,-2.6931,-2.6912,-2.6906,-2.6927,-2.6894,-2.6898,-2.6903,-2.6979,-2.6992,-2.7003,0,0,0,0,0,0,-2.7305,-2.7233,-2.7204,-2.7207,-2.7175,-2.7114,-2.7122,-2.7084,-2.706,-2.7053,-2.699,-2.6978,-2.6982,-2.6954,-2.6935,-2.6949,-2.6906,-2.691,-2.6967,-2.6978,-2.6988,-2.6994,-2.6866,0,0,0,0,0,-2.7324,-2.7312,-2.725,-2.7259,-2.7244,-2.7187,-2.7175,-2.7138,-2.7102,-2.7088,-2.7048,-2.7016,-2.6998,-2.6987,-2.6966,-2.698,-2.6967,-2.6992,-2.7001,-2.701,-2.7013,-2.702,-2.703,-2.6919,-2.6919,-2.6919,0,0,-2.7363,-2.7323,-2.7318,-2.7275,-2.7245,-2.7235,-2.7176,-2.7166,-2.7158,-2.7086,-2.708,-2.7051,-2.701,-2.7016,-2.7016,-2.6993,-2.7041,-2.7015,-2.7023,-2.7021,-2.7025,-2.7036,-2.7045,-2.6922,-2.6921,-2.6921,0,0,-2.7428,-2.7396,-2.74,-2.7373,-2.733,-2.7292,-2.7294,-2.724,-2.7217,-2.721,-2.7157,-2.7147,-2.7117,-2.7091,-2.7074,-2.7135,-2.7094,-2.713,-2.7181,-2.7188,-2.7197,-2.7204,-2.7226,-2.7235,-2.7134,-2.7134,-2.7134,0,-2.7482,-2.7462,-2.7408,-2.7402,-2.7385,-2.7322,-2.7327,-2.7303,-2.7256,-2.7247,-2.7222,-2.7184,-2.7153,-2.7152,-2.7167,-2.7155,-2.7156,-2.7135,-2.72,-2.7207,-2.7213,-2.7234,-2.7242,-2.7138,-2.7138,-2.7137,-2.7137,0,-2.7531,-2.7519,-2.7528,-2.7485,-2.747,-2.747,-2.7416,-2.7407,-2.7373,-2.7338,-2.7334,-2.7294,-2.7266,-2.7263,-2.7229,-2.7259,-2.7246,-2.7212,-2.7167,-2.7229,-2.7247,-2.7255,-2.7145,-2.7143,-2.7142,-2.7141,0,0,-2.7643,-2.7572,-2.7576,-2.7557,-2.7507,-2.7497,-2.7496,-2.7469,-2.7463,-2.7434,-2.7432,-2.741,-2.7379,-2.736,-2.7322,-2.7329,-2.7381,-2.7294,-2.7292,-2.7312,-2.7413,-2.7438,-2.7448,-2.7355,-2.7356,-2.7357,-2.7416,0,-2.7699,-2.7691,-2.7643,-2.765,-2.7639,-2.7581,-2.758,-2.755,-2.7519,-2.7506,-2.7472,-2.7458,-2.7417,-2.7406,-2.741,-2.7374,-2.74,-2.7369,-2.7353,-2.7353,-2.7363,-2.7457,-2.7483,-2.7541,-2.7423,-2.7424,-2.7425,0,-2.7762,-2.7738,-2.7744,-2.7696,-2.769,-2.769,-2.7662,-2.7651,-2.7617,-2.7594,-2.7575,-2.7534,-2.7531,-2.7491,-2.7487,-2.7467,-2.7458,-2.744,-2.7441,-2.7436,-2.7392,-2.7455,-2.7557,-2.7566,-2.7436,-2.7435,-2.7434,0,-2.7843,-2.7813,-2.7812,-2.7798,-2.7742,-2.7744,-2.7721,-2.7686,-2.7673,-2.765,-2.7642,-2.7619,-2.7607,-2.7591,-2.7545,-2.752,-2.7547,-2.7503,-2.7528,-2.753,-2.7535,-2.7535,-2.7637,-2.7531,-2.7531,-2.7531,-2.7531,0,-2.791,-2.7915,-2.7848,-2.7848,-2.7854,-2.7801,-2.7808,-2.778,-2.775,-2.7744,-2.7693,-2.769,-2.763,-2.7621,-2.7586,-2.7588,-2.7583,-2.7565,-2.7555,-2.7569,-2.7571,-2.7561,-2.7556,-2.7533,-2.7533,-2.7532,-2.7532,0,-2.8,-2.7955,-2.7951,-2.7901,-2.7888,-2.7895,-2.7852,-2.785,-2.7818,-2.7812,-2.7807,-2.7756,-2.7742,-2.7696,-2.7671,-2.7648,-2.7661,-2.7643,-2.7672,-2.7666,-2.7694,-2.7692,-2.7792,-2.7803,-2.7692,-2.7693,-2.7694,0,-2.8044,-2.8048,-2.7998,-2.7991,-2.7971,-2.796,-2.7947,-2.7897,-2.7887,-2.7851,-2.7854,-2.7837,-2.7819,-2.78,-2.7761,-2.7742,-2.7723,-2.776,-2.772,-2.7734,-2.7724,-2.7724,-2.7725,-2.7768,-2.777,-2.7771,-2.7772,0,-2.8129,-2.8107,-2.8091,-2.8069,-2.8056,-2.8036,-2.8013,-2.801,-2.7954,-2.7945,-2.7931,-2.7918,-2.7893,-2.7877,-2.7852,-2.783,-2.7792,-2.7785,-2.779,-2.7803,-2.782,-2.7812,-2.7695,-2.7783,-2.7781,-2.7781,-2.778,-2.778,-2.8197,-2.8198,-2.8164,-2.8149,-2.8127,-2.8108,-2.8104,-2.8073,-2.8059,-2.8035,-2.8007,-2.7996,-2.7966,-2.7929,-2.7911,-2.7903,-2.7882,-2.7889,-2.789,-2.7893,-2.79,-2.7823,-2.7898,-2.7898,-2.7897,-2.7897,-2.7897,0,-2.8278,-2.8254,-2.8241,-2.8211,-2.8201,-2.8167,-2.8141,-2.8134,-2.8126,-2.81,-2.8085,-2.807,-2.8055,-2.8017,-2.7999,-2.8,-2.7982,-2.7997,-2.7995,-2.7991,-2.7919,-2.7916,-2.8011,-2.8011,-2.8011,-2.8011,-2.8011,-2.8011,-2.8319,-2.8319,-2.8295,-2.8285,-2.8262,-2.8251,-2.8239,-2.8222,-2.8202,-2.8187,-2.8175,-2.815,-2.812,-2.81,-2.8086,-2.8075,-2.807,-2.8091,-2.8074,-2.8007,-2.7996,-2.7986,-2.7983,-2.809,-2.809,-2.8147,-2.8148,-2.8148]},{"header":{"parameterUnit":"m.s-1","parameterCategory":1,"la1":30.2991,"la2":30.254,"lo1":-89.0895,"lo2":-89.0444,"dy":0.0017,"dx":0.0017,"nx":28,"ny":28,"refTime":"2024-06-21T09:00:00:Z","depth":0,"parameterNumber":3,"parameterNumberName":"V-component_of_WINDS"},"data":[0,0,0,0,0,0,0,0,0,0,0,0,0,0,0,0,0,0,0,0,0,0,0,0,0,0,0,0,0,0,0,0,0,0,0,0,0,0,0,0,0,0,0,0,0,0,0,0,0,0,0,0,0,0,0,0,0,0,1.8141,1.8141,0,1.8121,1.8121,1.8121,1.8177,1.8179,1.8181,1.8183,1.8156,1.8153,1.8151,0,0,0,0,0,0,0,0,0,0,0,0,0,1.8225,1.8223,1.8141,1.8141,1.8141,1.8121,1.8121,1.8121,1.8177,1.8179,1.8181,1.8183,1.8157,1.8154,1.8151,0,0,0,0,0,0,0,0,0,0,0,0,0,1.8195,1.8222,1.8141,1.8167,1.8169,1.8121,1.8121,1.812,1.8177,1.8179,1.8182,1.8184,1.8157,1.8154,1.8151,1.8075,0,0,1.814,1.8138,0,0,0,0,0,0,0,0,1.8196,1.8192,1.8163,1.8165,1.8167,1.8155,1.8141,1.8105,1.8176,1.8174,1.8183,1.8186,1.8153,1.815,1.814,1.8074,1.8073,1.8139,1.8137,1.8136,1.8135,0,0,0,0,0,0,0,1.8198,1.8193,1.8133,1.8163,1.8165,1.8178,1.8177,1.8134,1.8148,1.8174,1.8178,1.8175,1.8154,1.8143,1.814,1.8072,1.8139,1.8136,1.8134,1.8133,1.7944,1.7941,0,0,0,0,0,0,1.8198,1.8194,1.8134,1.8133,1.8189,1.8174,1.8173,1.8156,1.8149,1.8151,1.8173,1.8178,1.8148,1.8144,1.8139,1.805,1.8136,1.8132,1.813,1.7947,1.7943,1.794,0,0,0,0,0,0,1.82,1.8192,1.8135,1.8165,1.8158,1.817,1.8151,1.8154,1.8143,1.8148,1.8151,1.8159,1.815,1.8144,1.8091,1.805,1.8131,1.8128,1.795,1.7946,1.7942,1.7871,0,0,0,0,0,0,1.8202,1.8192,1.8165,1.8164,1.8156,1.8088,1.8148,1.8152,1.8138,1.8144,1.8136,1.8137,1.8152,1.8096,1.8088,1.8046,1.8125,1.7954,1.7948,1.7943,1.7877,1.7865,1.7855,0,0,0,0,0,1.8204,1.8144,1.8163,1.8155,1.8122,1.8086,1.8081,1.8101,1.8134,1.8106,1.8109,1.8137,1.8057,1.809,1.8081,1.8038,1.7956,1.795,1.7943,1.7882,1.7868,1.7855,0,0,0,0,0,0,1.8137,1.8144,1.8165,1.8103,1.8094,1.8095,1.806,1.8085,1.8064,1.807,1.8094,1.8091,1.8034,1.8031,1.8069,1.7965,1.8012,1.8003,1.7969,1.7955,1.7943,1.7944,1.8122,0,0,0,0,0,1.8116,1.8087,1.8094,1.8039,1.8033,1.8048,1.8032,1.8049,1.8039,1.8034,1.8034,1.8022,1.7994,1.7974,1.7949,1.7878,1.7877,1.7844,1.7833,1.7824,1.7815,1.7777,1.7763,1.7919,1.7919,1.7919,0,0,1.807,1.8071,1.805,1.8026,1.802,1.7988,1.8043,1.8007,1.7983,1.8028,1.7978,1.7978,1.7966,1.7904,1.7876,1.79,1.7772,1.7816,1.7808,1.7804,1.7769,1.7754,1.7741,1.7914,1.7915,1.7916,0,0,1.797,1.7968,1.7922,1.7916,1.7908,1.7918,1.7907,1.7906,1.7908,1.7859,1.7892,1.7864,1.7815,1.7805,1.7793,1.7692,1.7717,1.7683,1.7623,1.7586,1.7573,1.7563,1.7525,1.7512,1.7675,1.7675,1.7675,0,1.7913,1.7869,1.7894,1.7857,1.7844,1.7886,1.7839,1.7831,1.7814,1.7804,1.7831,1.7772,1.7767,1.7703,1.7678,1.7668,1.7655,1.7683,1.7574,1.7563,1.7553,1.7518,1.7504,1.7671,1.7671,1.7672,1.7672,0,1.7799,1.7767,1.7731,1.7716,1.77,1.7657,1.7675,1.7655,1.7674,1.768,1.763,1.7626,1.76,1.7587,1.7603,1.7525,1.754,1.757,1.7617,1.7534,1.7501,1.7487,1.7665,1.7667,1.7668,1.7669,0,0,1.7653,1.7655,1.7641,1.7635,1.763,1.7606,1.7565,1.7542,1.7524,1.7512,1.7477,1.7436,1.7465,1.7452,1.7468,1.7435,1.7354,1.7469,1.747,1.7447,1.7266,1.7242,1.7226,1.7372,1.737,1.7368,1.7267,0,1.7554,1.7485,1.7508,1.7438,1.7409,1.745,1.7414,1.7407,1.7413,1.7387,1.7394,1.7364,1.7404,1.7397,1.7367,1.737,1.7318,1.7378,1.7338,1.7336,1.7337,1.7209,1.7183,1.7088,1.7254,1.7252,1.7251,0,1.7428,1.7413,1.734,1.7342,1.733,1.7298,1.7279,1.7255,1.7248,1.7254,1.7241,1.7264,1.7223,1.7273,1.7215,1.7256,1.7241,1.7241,1.7237,1.7232,1.7286,1.7199,1.7059,1.7044,1.7231,1.7232,1.7234,0,1.7327,1.7288,1.724,1.7234,1.7235,1.7211,1.721,1.7205,1.719,1.7174,1.7164,1.7142,1.713,1.7112,1.7128,1.7163,1.7068,1.7119,1.707,1.707,1.7046,1.7047,1.69,1.704,1.704,1.7041,1.7041,0,1.7212,1.7165,1.7195,1.7165,1.7114,1.7141,1.709,1.7093,1.7089,1.7059,1.7093,1.7064,1.7089,1.7062,1.7075,1.7025,1.7019,1.7022,1.7025,1.7018,1.7017,1.7006,1.7012,1.7037,1.7038,1.7038,1.7039,0,1.7089,1.7107,1.7057,1.7063,1.7064,1.7026,1.703,1.7002,1.7012,1.6974,1.6966,1.6981,1.6951,1.6967,1.6935,1.6944,1.6878,1.6892,1.6881,1.6884,1.6834,1.6838,1.6673,1.6652,1.6808,1.6806,1.6805,0,1.7013,1.6979,1.6982,1.6966,1.6963,1.6936,1.6922,1.6948,1.6931,1.6921,1.6894,1.6868,1.6848,1.6798,1.6804,1.678,1.6792,1.6736,1.6788,1.6781,1.6789,1.679,1.6786,1.6724,1.6722,1.6721,1.672,0,1.6876,1.6888,1.6867,1.685,1.6833,1.6819,1.6809,1.6793,1.6819,1.6799,1.677,1.6755,1.6724,1.6697,1.6677,1.6674,1.67,1.6704,1.6691,1.6681,1.6676,1.6677,1.685,1.6707,1.6708,1.6709,1.671,1.671,1.6774,1.6745,1.6743,1.6719,1.6715,1.6705,1.6679,1.6687,1.6664,1.6642,1.6659,1.6624,1.6618,1.6594,1.6588,1.656,1.6582,1.6564,1.6559,1.6553,1.6546,1.6683,1.6557,1.6557,1.6558,1.6558,1.6558,0,1.6637,1.6639,1.6617,1.6603,1.6583,1.6614,1.6604,1.6585,1.6555,1.6548,1.6529,1.6496,1.647,1.6476,1.6452,1.6429,1.644,1.6421,1.6422,1.6421,1.6528,1.6541,1.6413,1.6413,1.6413,1.6413,1.6413,1.6413,1.6564,1.6517,1.6529,1.648,1.6482,1.645,1.6441,1.6432,1.6427,1.6389,1.6369,1.6374,1.6371,1.6348,1.6326,1.6328,1.6317,1.6293,1.6299,1.6399,1.6413,1.6427,1.6439,1.6291,1.6291,1.6194,1.6193,1.6192]}]]